This demonstration page uses our WeatherBlox Daily Observations layout. Learn more.

Left ArrowRight Arrow

47.50024, -111.30081

Hourly Observations for April 16, 2020

Temp ( °F °C ) Dew Point ( °F °C ) Humidity (%) Winds ( mph kmh ) Pressure ( in mb ) Visibility ( mi km ) Precip ( " mm )
12:53 am 00:53 Cloudy 24 -4.4 20 -6.7 84 84 NW 5 7 30.46 1031 10 16 0.00 0.00
1:53 am 01:53 Mostly Cloudy 22 -5.6 18 -7.8 85 85 NW 7 11 30.44 1031 10 16 0.00 0.00
2:53 am 02:53 Cloudy 21 -6.1 16 -8.9 81 81 NNW 7 11 30.44 1031 10 16 0.00 0.00
3:53 am 03:53 Mostly Cloudy 18 -7.8 14 -10 84 84 WNW 7 11 30.45 1031 10 16 0.00 0.00
4:53 am 04:53 Cloudy 20 -6.7 15 -9.4 81 81 WNW 6 9 30.44 1031 10 16 0.00 0.00
5:53 am 05:53 Cloudy 20 -6.7 16 -8.9 85 85 SSW 5 7 30.45 1031 10 16 0.00 0.00
6:53 am 06:53 Cloudy 21 -6.1 17 -8.3 85 85 SW 7 11 30.45 1031 10 16 0.00 0.00
7:53 am 07:53 Cloudy 23 -5 19 -7.2 85 85 SW 7 11 30.47 1032 10 16 0.00 0.00
8:53 am 08:53 Cloudy 25 -3.9 20 -6.7 81 81 SSW 8 13 30.46 1032 10 16 0.00 0.00
9:53 am 09:53 Cloudy 27 -2.8 21 -6.1 78 78 SW 9 15 30.47 1032 10 16 0.00 0.00
10:53 am 10:53 Mostly Sunny 31 -0.6 22 -5.6 69 69 WSW 9 15 30.44 1031 10 16 0.00 0.00
11:53 am 11:53 Cloudy with Light Snow 31 -0.6 20 -6.7 64 64 W 9 15 30.42 1030 8 13 0.00 0.00
12:53 pm 12:53 Cloudy 34 1.1 17 -8.3 50 50 SW 12 19 30.39 1029 10 16 0.00 0.00
1:53 pm 13:53 Cloudy 35 1.7 18 -7.8 50 50 SSW 9 15 30.38 1029 10 16 0.00 0.00
2:53 pm 14:53 Partly Cloudy 37 2.8 16 -8.9 42 42 SSW 10 17 30.35 1028 10 16 0.00 0.00
3:53 pm 15:53 Sunny 39 3.9 13 -10.6 34 34 WSW 13 20 30.32 1027 10 16 0.00 0.00
4:53 pm 16:53 Sunny 41 5 13 -10.6 32 32 WSW 10 17 30.28 1025 10 16 0.00 0.00
5:53 pm 17:53 Sunny 41 5 15 -9.4 35 35 WSW 10 17 30.25 1024 10 16 0.00 0.00
6:53 pm 18:53 Sunny 40 4.4 16 -8.9 38 38 SW 10 17 30.23 1024 10 16 0.00 0.00
7:53 pm 19:53 Sunny 36 2.2 19 -7.2 50 50 S 9 15 30.21 1023 10 16 0.00 0.00
8:53 pm 20:53 Clear 33 0.6 19 -7.2 56 56 S 9 15 30.19 1022 10 16 0.00 0.00
9:53 pm 21:53 Clear 32 0 18 -7.8 56 56 SSW 13 20 30.17 1022 10 16 0.00 0.00
10:53 pm 22:53 Clear 31 -0.6 17 -8.3 56 56 SSW 12 19 30.14 1021 10 16 0.00 0.00
11:53 pm 23:53 Clear 31 -0.6 17 -8.3 56 56 SSW 14 22 30.12 1020 10 16 0.00 0.00

Powered by AerisWeather